Phil's Backyard

 Latitude S 29° 46' 26"    Longitude E 151° 07' 14"    Elevation 586 m

:now: :today: :yesterday: :daily data: :this month: :this year: :records: :monthly records:
:gauges: :graphs: :weatherzone: :forum: :dashboard: :webcam:
Legend:
Low (0-210)
Very High (490 - 630)

Moderate (210 - 350)
Extreme (630 - 800)

High (350 - 490)
Catastrophic (800+)


 
239.90
Date Temp. (°C) Wind Speed (km/h) Rain (mm) RH Days Since Rain pwsFWI
Prediction is active (including today!), values are above red line.
13/08/20 20.00 13.00 0.00 0.47 3 132.76
12/08/20 17.00 19.00 0.00 0.54 2 78.78
11/08/20 18.00 11.00 0.00 0.43 1 127.77
10/08/20 14.00 23.00 1.10 0.66 0 172.07
09/08/20 10.00 20.00 0.70 0.65 0 202.35
08/08/20 16.30 16.10 0.00 0.65 1 239.90
07/08/20 12.80 20.90 7.80 0.72 0 252.33
06/08/20 19.80 20.90 0.00 0.13 7 270.51
05/08/20 18.70 17.70 0.00 0.23 6 212.77
04/08/20 19.80 14.50 0.00 0.36 5 187.76
03/08/20 19.60 12.90 0.00 0.44 4 171.91
02/08/20 20.00 9.70 0.00 0.37 3 145.17
01/08/20 19.10 6.40 0.00 0.40 2 124.90
31/07/20 18.40 9.70 0.00 0.34 1 106.96
30/07/20 19.60 12.90 0.20 0.41 0 78.92
29/07/20 17.30 16.10 0.20 0.56 0 83.34
28/07/20 11.70 11.30 0.00 0.77 1 79.79
27/07/20 10.40 19.30 0.40 0.81 0 90.05
26/07/20 16.20 17.70 2.60 0.71 0 114.00
25/07/20 19.30 12.90 12.20 0.59 0 155.67
24/07/20 20.10 17.70 0.00 0.53 9 189.47
23/07/20 19.90 8.00 0.00 0.37 8 173.57
22/07/20 17.40 8.00 0.00 0.42 7 178.00
21/07/20 18.70 8.00 0.00 0.31 6 190.43
20/07/20 17.10 16.10 0.00 0.31 5 197.41
19/07/20 19.50 12.90 0.00 0.44 4 166.35
18/07/20 19.20 8.00 0.00 0.32 3 157.70
17/07/20 19.60 11.30 0.00 0.44 2 159.24
16/07/20 14.10 17.70 0.00 0.44 1 129.44
15/07/20 15.10 19.30 0.20 0.52 0 96.61
14/07/20 11.20 17.70 0.00 0.72 2 87.55
13/07/20 13.60 16.10 0.00 0.50 1 100.35
12/07/20 17.20 14.50 0.20 0.53 0 91.25
11/07/20 13.30 12.90 2.20 0.88 0 81.73
10/07/20 18.70 11.30 6.60 0.60 0 106.26
09/07/20 17.80 11.30 0.80 0.55 0 132.17
08/07/20 19.10 9.70 0.00 0.37 1 137.15
07/07/20 18.30 6.40 0.20 0.37 0 130.39
06/07/20 17.50 6.40 0.00 0.42 3 144.36
05/07/20 14.50 12.90 0.00 0.52 2 147.54
04/07/20 12.50 19.30 0.00 0.42 1 150.28
03/07/20 18.40 17.70 0.80 0.67 0 148.00
02/07/20 19.30 11.30 0.20 0.58 0 148.01
01/07/20 18.80 11.30 0.20 0.43 0 148.08
30/06/20 17.90 8.00 0.00 0.42 4 143.43
29/06/20 17.60 9.70 0.00 0.38 3 140.80
28/06/20 19.20 11.30 0.00 0.38 2 131.99
27/06/20 18.20 9.70 0.00 0.39 1 124.76
26/06/20 17.20 9.70 0.20 0.44 0 99.08
25/06/20 15.30 12.90 0.00 0.57 2 95.54
24/06/20 13.70 12.90 0.00 0.57 1 102.21
23/06/20 12.10 16.10 0.20 0.64 0 113.48
22/06/20 13.40 19.30 0.60 0.58 0 127.20
21/06/20 14.30 9.70 4.60 0.84 0 128.39
20/06/20 19.30 6.40 0.00 0.45 2 145.74
19/06/20 19.10 11.30 0.00 0.46 1 145.06
18/06/20 21.10 12.90 0.20 0.54 0 101.10
17/06/20 20.60 9.70 0.00 0.36 1 89.94
16/06/20 19.40 9.70 0.20 0.46 0 83.13
15/06/20 19.70 6.40 0.00 0.39 1 81.03
14/06/20 19.70 11.30 0.20 0.69 0 108.28
13/06/20 21.70 14.50 20.00 0.42 0 134.55
12/06/20 21.60 6.40 0.00 0.47 1 140.79
11/06/20 20.80 9.70 0.20 0.49 0 142.90
10/06/20 20.80 9.70 1.00 0.57 0 138.55
09/06/20 20.00 12.90 0.00 0.50 4 141.79
08/06/20 18.60 9.70 0.00 0.33 3 136.61
07/06/20 19.10 8.00 0.00 0.44 2 136.86
06/06/20 18.90 8.00 0.00 0.41 1 162.65
05/06/20 18.10 8.00 0.20 0.40 0 175.23
04/06/20 18.20 8.00 0.00 0.41 3 186.77
03/06/20 15.10 16.10 0.00 0.53 2 194.97
02/06/20 12.50 19.30 0.00 0.48 1 198.70
01/06/20 20.40 17.70 0.20 0.45 0 193.88
31/05/20 20.80 12.90 0.00 0.46 4 175.25
30/05/20 21.90 11.30 0.00 0.52 3 171.56
29/05/20 21.00 9.70 0.00 0.40 2 150.59
28/05/20 20.90 11.30 0.00 0.45 1 134.96
27/05/20 22.10 9.70 0.20 0.51 0 113.19
26/05/20 20.90 9.70 0.00 0.50 1 79.09
25/05/20 17.90 14.50 0.20 0.47 0 64.05
24/05/20 12.30 12.90 0.00 0.77 3 67.98
23/05/20 11.20 14.50 0.00 0.63 2 105.26
22/05/20 10.60 12.90 0.00 0.70 1 133.38
21/05/20 15.40 12.90 11.40 0.84 0 168.21
20/05/20 18.90 14.50 24.00 0.65 0 210.93
19/05/20 22.10 11.30 0.00 0.46 9 235.32
18/05/20 21.70 17.70 0.00 0.49 8 226.62
17/05/20 22.40 11.30 0.00 0.29 7 214.43
16/05/20 22.70 12.90 0.00 0.39 6 201.47
15/05/20 20.60 11.30 0.00 0.31 5 201.87
14/05/20 21.10 8.00 0.00 0.43 4 118.42
13/05/20 19.60 11.30 0.00 0.52 3 136.62
12/05/20 20.60 11.30 0.00 0.35 2 144.08
11/05/20 19.10 11.30 0.00 0.37 1 133.25
10/05/20 18.10 16.10 0.20 0.33 0 180.42
09/05/20 21.00 16.10 10.20 0.62 0 178.82
08/05/20 23.30 12.90 0.00 0.43 7 207.46
07/05/20 22.20 9.70 0.00 0.36 6 195.01
06/05/20 23.40 8.00 0.00 0.44 5 192.87
05/05/20 23.30 9.70 0.00 0.37 4 134.14
04/05/20 20.20 9.70 0.00 0.28 3 155.15
03/05/20 16.90 14.50 0.00 0.43 2 153.57
02/05/20 15.50 19.30 0.00 0.55 1 167.10
01/05/20 14.60 19.30 0.20 0.50 0 215.17
30/04/20 24.70 22.50 9.80 0.62 0 238.54
29/04/20 25.90 16.10 0.00 0.47 12 279.78
28/04/20 25.60 9.70 0.00 0.49 11 261.03
27/04/20 26.30 11.30 0.00 0.40 10 291.62
26/04/20 25.40 12.90 0.00 0.43 9 282.12
25/04/20 26.30 8.00 0.00 0.31 8 266.48
24/04/20 25.80 9.70 0.00 0.27 7 272.40
23/04/20 24.70 9.70 0.00 0.35 6 262.47
22/04/20 25.20 14.50 0.00 0.31 5 290.27
21/04/20 24.90 9.70 0.00 0.38 4 274.00
20/04/20 22.10 9.70 0.00 0.36 3 254.56
19/04/20 21.40 12.90 0.00 0.32 2 244.62
18/04/20 23.70 9.70 0.00 0.33 1 224.75
17/04/20 28.60 14.50 0.20 0.40 0 211.57
16/04/20 26.40 12.90 0.00 0.45 3 188.15
15/04/20 26.60 4.80 0.00 0.42 2 96.90
14/04/20 25.10 6.40 0.00 0.41 1 111.79
13/04/20 23.70 8.00 0.20 0.45 0 129.42
12/04/20 23.70 6.40 0.00 0.31 2 146.60
11/04/20 21.10 17.70 0.00 0.53 1 200.35
10/04/20 17.80 12.90 22.80 0.83 0 196.55
09/04/20 23.60 12.90 0.00 0.53 3 160.82
08/04/20 25.20 11.30 0.00 0.41 2 160.34
07/04/20 25.70 9.70 0.00 0.36 1 172.02
06/04/20 24.40 9.70 0.20 0.34 0 171.76
05/04/20 22.00 11.30 0.20 0.40 0 205.08
04/04/20 25.00 22.50 5.40 0.52 0 119.71
03/04/20 26.20 22.50 10.80 0.61 0 158.75
02/04/20 27.20 14.50 0.40 0.47 0 182.54
01/04/20 29.30 8.00 0.00 0.36 2 179.68
31/03/20 27.60 16.10 0.00 0.39 1 237.05
30/03/20 26.70 17.70 13.80 0.58 0 153.36
29/03/20 28.10 9.70 0.00 0.43 4 181.43
28/03/20 27.90 9.70 0.00 0.40 3 205.68
27/03/20 25.20 16.10 0.00 0.51 2 259.10
26/03/20 25.80 9.70 0.00 0.57 1 316.17
25/03/20 27.40 14.50 20.00 0.51 0 362.92
24/03/20 26.30 12.90 0.00 0.53 13 403.43
23/03/20 29.60 14.50 0.00 0.44 12 423.79
22/03/20 31.10 14.50 0.00 0.25 11 400.87
21/03/20 32.10 11.30 0.00 0.25 10 352.89
20/03/20 29.10 11.30 0.00 0.36 9 324.87
19/03/20 29.00 8.00 0.00 0.30 8 348.48
18/03/20 26.60 12.90 0.00 0.30 7 358.95
17/03/20 26.90 9.70 0.00 0.34 6 361.55
16/03/20 26.30 12.90 0.00 0.42 5 315.27
15/03/20 25.30 16.10 0.00 0.48 4 315.64
14/03/20 27.30 16.10 0.00 0.29 3 208.33
13/03/20 26.80 12.90 0.00 0.38 2 177.01
12/03/20 26.40 16.10 0.00 0.40 1 119.78
11/03/20 19.40 14.50 2.40 0.69 0 113.80
10/03/20 26.20 16.10 0.80 0.52 0 52.45
09/03/20 25.80 12.90 13.40 0.59 0 69.89
08/03/20 28.60 12.90 6.80 0.49 0 168.06
07/03/20 30.50 14.50 1.20 0.47 0 255.33
06/03/20 28.70 14.50 0.20 0.55 0 340.97
05/03/20 26.60 17.70 17.20 0.55 0 344.55
04/03/20 28.40 14.50 0.00 0.48 6 384.64
03/03/20 33.40 12.90 0.00 0.30 5 422.29
02/03/20 33.20 9.70 0.00 0.28 4 328.57
01/03/20 31.80 11.30 0.00 0.36 3 295.91
29/02/20 31.40 6.40 0.00 0.38 2 227.05
28/02/20 31.30 8.00 0.00 0.28 1 189.65
27/02/20 31.30 17.70 0.20 0.40 0 192.50
26/02/20 28.30 14.50 2.80 0.61 0 199.72
25/02/20 28.40 11.30 0.00 0.55 1 266.95
24/02/20 26.40 17.70 4.60 0.64 0 368.54
23/02/20 25.20 14.50 2.20 0.53 0 418.86
22/02/20 27.30 17.70 0.00 0.56 5 351.66
21/02/20 31.10 14.50 0.00 0.37 4 344.68
20/02/20 29.20 14.50 0.00 0.25 3 318.42
19/02/20 31.60 19.30 0.00 0.33 2 267.16
18/02/20 32.00 11.30 0.00 0.53 1 108.52
17/02/20 33.00 25.70 12.00 0.52 0 136.08
16/02/20 35.40 30.60 39.40 0.39 0 166.20
15/02/20 32.30 9.70 0.00 0.39 2 96.79
14/02/20 29.30 11.30 0.00 0.59 1 92.67
13/02/20 25.10 14.50 8.20 0.71 0 8.91
12/02/20 31.00 14.50 9.60 0.56 0 73.06
11/02/20 32.40 17.70 2.80 0.42 0 103.82
10/02/20 27.10 22.50 7.20 0.58 0 131.99
09/02/20 29.80 12.90 0.00 0.50 1 222.68
08/02/20 23.70 11.30 7.60 0.78 0 326.73
07/02/20 30.60 16.10 35.00 0.50 0 497.52
06/02/20 23.30 14.50 3.60 0.72 0 560.46
05/02/20 25.90 17.70 0.00 0.53 9 677.27
04/02/20 31.20 22.50 0.00 0.45 8 725.31
03/02/20 35.20 20.90 0.00 0.35 7 717.15
02/02/20 36.40 19.30 0.00 0.35 6 637.60
01/02/20 36.30 9.70 0.00 0.36 5 408.83
31/01/20 37.20 14.50 0.00 0.35 4 332.96
30/01/20 36.90 12.90 0.00 0.35 3 212.57
29/01/20 37.00 12.90 0.00 0.35 2 158.25
28/01/20 34.30 11.30 0.00 0.38 1 76.65
27/01/20 32.80 20.90 7.60 0.48 0 35.97
26/01/20 33.10 14.50 2.20 0.45 0 217.50
25/01/20 35.90 27.40 9.40 0.41 0 63.57
24/01/20 31.10 12.90 0.00 0.56 1 116.90
23/01/20 33.90 20.90 6.20 0.48 0 158.08
22/01/20 36.90 30.60 3.40 0.27 0 203.91
21/01/20 34.10 19.30 0.00 0.14 1 298.06
20/01/20 34.30 35.40 21.00 0.44 0 191.17
19/01/20 32.40 11.30 0.00 0.41 2 261.76
18/01/20 27.30 17.70 0.00 0.57 1 330.57
17/01/20 27.60 14.50 29.40 0.59 0 397.52
16/01/20 31.20 25.70 13.20 0.47 0 546.41
15/01/20 33.80 16.10 1.20 0.35 0 671.49
14/01/20 35.10 16.10 0.00 0.23 5 510.24
13/01/20 34.40 17.70 0.00 0.30 4 599.00
12/01/20 30.60 22.50 0.00 0.45 3 714.41
11/01/20 34.30 17.70 0.00 0.36 2 726.47
10/01/20 36.70 12.90 0.00 0.30 1 947.29
09/01/20 37.70 29.00 13.00 0.31 0 1053.82
08/01/20 37.80 22.50 0.00 0.22 1 1085.37
07/01/20 36.30 30.60 0.40 0.32 0 737.29
06/01/20 36.80 12.90 0.00 0.24 4 586.09
05/01/20 40.20 19.30 0.00 0.19 3 574.55
04/01/20 39.60 11.30 0.00 0.19 2 514.18
03/01/20 38.60 11.30 0.00 0.24 1 660.75
02/01/20 40.80 24.10 9.60 0.20 0 774.99
01/01/20 37.90 9.70 0.00 0.25 7 797.74
31/12/19 38.10 9.70 0.00 0.14 6 811.40
30/12/19 38.50 14.50 0.00 0.12 5 849.10
29/12/19 38.60 12.90 0.00 0.08 4 809.49
28/12/19 36.30 12.90 0.00 0.14 3 745.40
27/12/19 34.80 12.90 0.00 0.20 2 855.27
26/12/19 34.80 11.30 0.00 0.12 1 877.73
25/12/19 32.80 22.50 0.20 0.33 0 842.54
24/12/19 35.90 16.10 0.00 0.29 11 769.54
23/12/19 37.00 11.30 0.00 0.30 10 735.88
22/12/19 43.00 16.10 0.00 0.12 9 739.79
21/12/19 39.10 11.30 0.00 0.13 8 709.44
20/12/19 39.50 6.40 0.00 0.17 7 685.06
19/12/19 37.20 6.40 0.00 0.19 6 694.35
18/12/19 36.80 9.70 0.00 0.15 5 713.48
17/12/19 36.70 9.70 0.00 0.13 4 806.30
16/12/19 36.60 19.30 0.00 0.09 3 968.69
15/12/19 35.90 11.30 0.00 0.14 2 928.22
14/12/19 35.10 9.70 0.00 0.21 1 914.44
13/12/19 32.10 14.50 0.20 0.38 0 968.50
12/12/19 37.50 17.70 0.00 0.14 1 1040.58
11/12/19 40.40 20.90 0.20 0.15 0 1051.90
10/12/19 37.90 16.10 0.00 0.17 9 918.76
09/12/19 37.40 9.70 0.00 0.18 8 877.83
08/12/19 36.50 12.90 0.00 0.10 7 882.40
07/12/19 37.20 12.90 0.00 0.04 6 853.12
06/12/19 35.80 19.30 0.00 0.08 5 773.36
05/12/19 33.70 12.90 0.00 0.07 4 564.03
04/12/19 31.60 16.10 0.00 0.09 3 589.47
03/12/19 29.10 16.10 0.00 0.17 2 555.42
02/12/19 24.70 25.70 0.00 0.29 1 555.54
01/12/19 26.10 19.30 0.40 0.40 0 441.26
30/11/19 32.30 24.10 2.60 0.36 0 512.33
29/11/19 36.10 16.10 0.00 0.21 3 440.89
28/11/19 34.80 11.30 0.00 0.18 2 385.45
27/11/19 33.70 11.30 0.00 0.08 1 406.72
26/11/19 34.30 27.40 1.40 0.25 0 505.14
25/11/19 30.90 12.90 1.00 0.35 0 636.85
24/11/19 32.70 19.30 3.80 0.33 0 730.94
23/11/19 35.40 11.30 0.20 0.25 0 738.84
22/11/19 36.40 12.90 0.00 0.20 19 811.97
21/11/19 35.60 11.30 0.00 0.26 18 832.14
20/11/19 38.20 19.30 0.00 0.06 17 839.99
19/11/19 33.70 11.30 0.00 0.11 16 667.33
18/11/19 31.10 9.70 0.00 0.18 15 654.39
17/11/19 30.70 19.30 0.00 0.11 14 802.20
16/11/19 33.30 16.10 0.00 0.11 13 748.16
15/11/19 32.10 12.90 0.00 0.14 12 685.38
14/11/19 29.30 9.70 0.00 0.10 11 683.49
13/11/19 28.30 12.90 0.00 0.06 10 816.11
12/11/19 35.00 20.90 0.00 0.06 9 887.82
11/11/19 30.60 12.90 0.00 0.13 8 752.92
10/11/19 27.20 14.50 0.00 0.19 7 754.88
09/11/19 21.90 22.50 0.00 0.11 6 757.28
08/11/19 31.70 24.10 0.00 0.09 5 651.30
07/11/19 32.10 19.30 0.00 0.10 4 514.36
06/11/19 28.60 12.90 0.00 0.14 3 447.84
05/11/19 21.30 25.70 0.00 0.22 2 360.20
04/11/19 28.10 16.10 0.00 0.28 1 314.64
03/11/19 31.50 14.50 2.00 0.34 0 329.35
02/11/19 28.90 12.90 0.00 0.33 2 430.20
01/11/19 30.80 14.50 0.00 0.22 1 476.59
31/10/19 29.10 11.30 3.40 0.32 0 603.56
30/10/19 26.70 14.50 0.00 0.44 4 661.95
29/10/19 29.40 9.70 0.00 0.25 3 688.22
28/10/19 30.10 19.30 0.00 0.13 2 699.15
27/10/19 30.10 14.50 0.00 0.06 1 656.92
26/10/19 32.20 25.70 0.20 0.20 0 618.73
25/10/19 30.70 12.90 0.00 0.25 9 542.54
24/10/19 31.20 11.30 0.00 0.18 8 574.86
23/10/19 30.40 9.70 0.00 0.15 7 581.82
22/10/19 28.80 16.10 0.00 0.20 6 698.66
21/10/19 27.60 12.90 0.00 0.17 5 595.89
20/10/19 27.40 17.70 0.00 0.13 4 614.52
19/10/19 27.40 17.70 0.00 0.08 3 566.37
18/10/19 28.10 12.90 0.00 0.06 2 486.86
17/10/19 32.60 24.10 0.00 0.20 1 393.87
16/10/19 34.10 14.50 1.40 0.23 0 263.21
15/10/19 31.90 14.50 0.00 0.28 3 206.60
14/10/19 27.20 12.90 0.00 0.30 2 186.33
13/10/19 24.10 9.70 0.00 0.31 1 298.19
12/10/19 20.60 16.10 1.60 0.44 0 491.10
11/10/19 20.80 16.10 20.20 0.44 0 592.62
10/10/19 23.60 9.70 6.40 0.26 0 664.81
09/10/19 24.90 14.50 0.00 0.13 17 769.16
08/10/19 31.50 24.10 0.00 0.20 16 756.17
07/10/19 35.70 20.90 0.00 0.13 15 647.66
06/10/19 33.40 12.90 0.00 0.18 14 503.46
05/10/19 31.20 9.70 0.00 0.17 13 486.17
04/10/19 30.10 14.50 0.00 0.18 12 539.27
03/10/19 28.20 11.30 0.00 0.22 11 562.20
02/10/19 27.70 11.30 0.00 0.16 10 566.06
01/10/19 24.70 16.10 0.00 0.31 9 560.71
30/09/19 26.10 16.10 0.00 0.15 8 541.12
29/09/19 26.90 20.90 0.00 0.14 7 501.71
28/09/19 28.00 19.30 0.00 0.14 6 475.01
27/09/19 26.50 14.50 0.00 0.28 5 348.82
26/09/19 24.10 14.50 0.00 0.24 4 357.78
25/09/19 24.20 11.30 0.00 0.26 3 365.57
24/09/19 24.80 9.70 0.00 0.11 2 401.36
23/09/19 25.50 17.70 0.00 0.12 1 391.92
22/09/19 27.70 17.70 1.40 0.36 0 431.39
21/09/19 27.40 16.10 0.00 0.30 41 541.03
20/09/19 27.60 14.50 0.00 0.30 40 512.18
19/09/19 26.10 17.70 0.00 0.27 39 558.70
18/09/19 23.90 11.30 0.00 0.32 38 560.14
17/09/19 24.70 20.90 0.00 0.23 37 576.63
16/09/19 28.40 16.10 0.00 0.11 36 512.50
15/09/19 27.60 8.00 0.00 0.08 35 459.49
14/09/19 27.20 17.70 0.00 0.04 34 477.92
13/09/19 26.40 14.50 0.00 0.10 33 426.05
12/09/19 23.10 14.50 0.00 0.23 32 406.56
11/09/19 22.80 8.00 0.00 0.17 31 550.99
10/09/19 19.40 16.10 0.00 0.19 30 634.51
09/09/19 15.60 27.40 0.00 0.24 29 697.98
08/09/19 19.20 20.90 0.00 0.23 28 727.47
07/09/19 18.80 22.50 0.00 0.27 27 739.49
06/09/19 30.70 25.70 0.00 0.08 26 717.58
05/09/19 29.80 16.10 0.00 0.10 25 549.89
04/09/19 29.20 17.70 0.00 0.14 24 457.82
03/09/19 26.80 16.10 0.00 0.08 23 380.16
02/09/19 24.80 16.10 0.00 0.16 22 313.19
01/09/19 23.70 11.30 0.00 0.24 21 275.22
31/08/19 21.70 9.70 0.00 0.17 20 285.44
30/08/19 20.40 8.00 0.00 0.21 19 298.14
29/08/19 20.20 11.30 0.00 0.13 18 303.44
28/08/19 20.90 12.90 0.00 0.40 17 291.44
27/08/19 25.10 9.70 0.00 0.23 16 314.82
26/08/19 25.20 11.30 0.00 0.15 15 311.87
25/08/19 23.80 12.90 0.00 0.27 14 297.80
24/08/19 22.80 9.70 0.00 0.32 13 296.16
23/08/19 20.70 9.70 0.00 0.25 12 324.21
22/08/19 19.30 20.90 0.00 0.33 11 353.42
21/08/19 19.60 14.50 0.00 0.31 10 342.22
20/08/19 18.60 14.50 0.00 0.22 9 331.13
19/08/19 17.20 17.70 0.00 0.21 8 316.08
18/08/19 25.30 12.90 0.00 0.21 7 282.09
17/08/19 23.90 12.90 0.00 0.14 6 235.08
16/08/19 22.20 12.90 0.00 0.24 5 208.01
15/08/19 20.30 11.30 0.00 0.34 4 221.37
CumulusUtils Version 3.3.9 - generated at 09/08/2020 09:00 - © Hans Rottier
Science background here. - NOTE: Behavioural testing still under way!
Prediction courtesy of https://www.yourweather.co.uk/
:now: :today: :yesterday: :daily data: :this month: :this year: :records: :monthly records:
:gauges: :graphs: :weatherzone: :forum: :dashboard: ::
:
fire index: :fwi graphs: :top10: :extremes: :sysinfo:


Page updated daily at 9:00 AM
powered by CumulusMX v3.1.2 (3055) Valid HTML | Valid CSS
this page by Hans Rottier from the Cumulus Forum

Cumulus Top Weather Sites